Hourly Data Report for January 03, 2018

All times are specified in Local Standard Time (LST). Add 1 hour to adjust for Daylight Saving Time where and when it is observed.

TORONTO INTL A
ONTARIO

43°40'36.000" N
79°37'50.000" W
173.40 m
6158731
71624
YYZ

Download Data

Hourly Data (January 2018)
Hourly Data Report for January 3, 2018
Temp Definition
°C
Dew Point Temp Definition
°C
Rel Hum Definition
%
Wind Dir Definition
10's deg

Wind Spd Definition
km/h
Visibility Definition
km
Stn Press Definition
kPa
Hmdx Definition


Wind Chill Definition


Weather Definition


TIME
00:00 -12.9 -18.6 63 24 38 19.3 99.89   -24 Blowing Snow
01:00 -13.1 -19.6 58 24 27 24.1 99.88   -23 Blowing Snow
02:00 -13.4 -20.2 57 24 29 24.1 99.86   -24 Blowing Snow
03:00 -13.1 -20.6 54 24 27 24.1 99.83   -23 Blowing Snow
04:00 -12.0 -20.4 50 24 31 24.1 99.78   -22 Mostly Cloudy
05:00 -11.3 -20.1 49 26 22 24.1 99.78   -20 LegendNANA
06:00 -11.2 -21.0 45 25 28 24.1 99.75   -21 LegendNANA
07:00 -11.0 -21.0 44 22 25 24.1 99.73   -20 Mostly Cloudy
08:00 -11.6 -19.6 52 24 21 24.1 99.74   -20 LegendNANA
09:00 -10.7 -19.6 48 22 14 24.1 99.69   -17 LegendNANA
10:00 -9.1 -18.0 49 21 10 24.1 99.66   -14 Mostly Cloudy
11:00 -8.6 -15.1 60 22 23 24.1 99.61   -17 LegendNANA
12:00 -7.2 -14.0 59 23 29 24.1 99.48   -16 LegendNANA
13:00 -6.9 -13.7 59 22 24 24.1 99.38   -15 Mostly Cloudy
14:00 -6.5 -12.7 62 23 22 19.3 99.28   -14 LegendNANA
15:00 -6.8 -11.8 68 21 21 12.9 99.24   -14 Snow Showers
16:00 -7.0 -11.4 71 20 21 4.8 99.25   -14 Snow
17:00 -7.0 -10.6 75 22 17 9.7 99.27   -13 Snow
18:00 -7.5 -12.2 69 24 26 16.1 99.34   -16 Snow
19:00 -7.9 -12.4 71 23 23 12.9 99.39   -16 Snow
20:00 -8.8 -12.9 73 25 24 16.1 99.41   -17 Snow
21:00 -9.2 -13.1 73 26 25 16.1 99.37   -18 Snow
22:00 -9.4 -13.7 71 26 19 24.1 99.32   -17 Cloudy
23:00 -9.5 -13.7 72 25 13 24.1 99.26   -16 LegendNANA

Notes on Data Quality.

Legend

  • E = Estimated
  • M = Missing
  • NA = Not Available
Date modified: